map of PSA home
PSA - Airport
Location
City:  Pisa, Tuscany, Italy
Near (Alt.):San Giusto
Name:Galileo Galilei International Airport
ICAO:LIRP
IATA:PSA

Details
Type:Airport (Aerodrome, Airfield)
Use:Public/Civil, Military, International (customs port of entry)
Latitude:4341'02"N (43.683917)
Longitude:1023'34"E (10.392750)
Datum:WGS 1984
Elevation:6 ft (2 m)
Variation:2.99E (WMM2015v2 magnetic declination)
0.14 annual change
Runways:2
Longest:9820 × 148 ft (2993 × 45 m), paved

Time
Time Zone:UTC+1 (DST+2)
Local Time:

Weather
METAR:LIRP 041345Z 13013KT 9999 FEW050 15/04 Q1022 NOSIG
TAF:LIRP 041100Z 0412/0512 07012KT CAVOK
TEMPO 0412/0421 07015G30KT

Related Locations
Nearby:
Farthest:CHT: 12098 mi / 19470 km
Waitangi [Tuuta], CIT, NZ

Find:

   beyond  
but within

Other Information
Maps:
NOTAMs:
Links:
Sources:

  
  • flag of Italy
  • flag of Tuscany
  

Airport Diagram

Airport diagram for PSA

Larger airport diagram (OBSOLETE) from NGA

Sectional Chart

Flight Planning
at skyvector.com

Satellite Image

Google Maps Satellite view

 

Copyright © 2004-2019 Karl L. Swartz. All rights reserved.
The Great Circle Mapper name and logo are trademarks of the Great Circle Mapper.
All other trademarks mentioned herein belong to their respective owners.
Please see credits for attibutions and further copyright information.

  Follow gcmap on Facebook Follow gcmap on Twitter GCmap on LinkedIn

hCard Microformat

Geo Microformat